Flag for U.S.A. Weather past 2 weeks in Durham, North Carolina, U.S.A.

Now
39 °F

Passing clouds.


Feels Like: 31 °F
Forecast: 33 / 45 °F
Wind: 13 mph from West

Location: Raleigh-Durham International Airport

Current Time: Mar 28, 2015 at 11:24:45 AM

Latest Report: Mar 28, 2015 at 10:51 AM


Visibility: 10 mi

Pressure: 30.05 "Hg

Humidity: 41%

Dew point: 17 °F

Location of DurhamLocation

Historic Weather in Durham — Graph

°F

Durham temperature yesterday

Maximum temperature yesterday: 66 °F (at 12:51 AM)
Minimum temperature yesterday: 40 °F (at 9:51 PM)
Average temperature yesterday: 50 °F

Past Weeks' High & Low Weather Summary

 TemperatureHumidityPressure
High81 °F (Mar 17, 2:51 PM)100% (Mar 14, 7:51 AM)30.56 "Hg (Mar 14, 7:51 AM)
Low36 °F (Mar 28, 6:51 AM)14% (Mar 16, 4:51 PM)29.63 "Hg (Mar 27, 4:51 AM)
Average54 °F64%30.07 "Hg
* Reported Mar 13 9:51 AM — Mar 28 9:51 AM, Durham, Weather by CustomWeather, © 2015

Note: Actual official high and low records may vary slightly from our data, if they occured in-between our weather recording intervals... More about our weather records

Advertising

Durham weather history for previous 24 hours

 ConditionsComfort  
Time TempWeatherWind HumidityBarometerVisibility
9:51 AM
Sat, Mar 28
38 °FScattered clouds.8 mph46%30.04 "Hg10 mi
8:51 AM38 °FPassing clouds.8 mph53%30.01 "Hg10 mi
7:51 AM37 °FPassing clouds.6 mph67%29.98 "Hg10 mi
6:51 AM36 °FPassing clouds.No wind70%29.95 "Hg10 mi
5:51 AM38 °FPassing clouds.5 mph68%29.92 "Hg10 mi
4:51 AM40 °FPassing clouds.3 mph77%29.90 "Hg10 mi
3:51 AM41 °FOvercast.7 mph74%29.88 "Hg10 mi
2:51 AM42 °FMostly cloudy.5 mph85%29.87 "Hg10 mi
1:51 AM41 °FMostly cloudy.No wind93%29.86 "Hg10 mi
12:51 AM41 °FOvercast.No wind89%29.85 "Hg10 mi
11:51 PM
Fri, Mar 27
40 °FMostly cloudy.No wind93%29.84 "Hg10 mi
10:51 PM40 °FPassing clouds.No wind93%29.82 "Hg10 mi
9:51 PM40 °FPartly cloudy.No wind89%29.82 "Hg10 mi
8:51 PM41 °FMostly cloudy.3 mph89%29.81 "Hg10 mi
7:51 PM42 °FLight rain. Cloudy.5 mph89%29.81 "Hg10 mi
6:51 PM43 °FLight rain. Fog.6 mph86%29.80 "Hg6 mi
5:51 PM44 °FCloudy.6 mph85%29.78 "Hg10 mi
4:51 PM44 °FDrizzle. Mostly cloudy.9 mph85%29.77 "Hg10 mi
3:51 PM44 °FDrizzle. Fog.14 mph89%29.75 "Hg3 mi
2:51 PM46 °FMostly cloudy.14 mph83%29.75 "Hg10 mi
1:51 PM46 °FMostly cloudy.14 mph86%29.75 "Hg10 mi
12:51 PM46 °FMostly cloudy.8 mph89%29.76 "Hg10 mi
11:51 AM46 °FLight rain. Fog.13 mph89%29.77 "Hg4 mi
Weather by CustomWeather, © 2015

See weather overviewHow to use our weather pages